Flag for USA

Past Weather in Beulah, North Dakota, USA — Yesterday and Last 2 Weeks

Now
73 °F

Partly sunny.


Feels Like: 76 °F
Forecast: 78 / 56 °F
Wind: 18 mph from Northwest

Location: Mercer County Regional Airport

Current Time: Jul 11, 2020 at 1:50:21 pm

Latest Report: Jul 11, 2020 at 1:15 pm


Visibility: 10 mi

Pressure: 30.11 "Hg (28.28 "Hg at 544m altitude)

Humidity: 65%

Dew Point: 61 °F

Location of BeulahLocation

Past Weather in Beulah — Graph

°F

Beulah Temperature Yesterday

Maximum temperature yesterday: 81 °F (at 3:55 pm)
Minimum temperature yesterday: 48 °F (at 6:15 am)
Average temperature yesterday: 66 °F

High & Low Weather Summary for the Past Weeks

 TemperatureHumidityPressure
High97 °F (Jun 27, 3:15 pm)100% (Jun 28, 5:15 am)30.12 "Hg (Jun 28, 5:15 am)
Low48 °F (Jul 10, 6:15 am)26% (Jun 27, 6:15 pm)29.42 "Hg (Jun 28, 4:35 pm)
Average72 °F75%29.85 "Hg
* Reported Jun 26 12:35 pm — Jul 11 12:35 pm, Beulah. Weather by CustomWeather, © 2020

Note: Actual official high and low records may vary slightly from our data, if they occured in-between our weather recording intervals... More about our weather records

Beulah Weather History for the Previous 24 Hours

Scroll right to see more
 ConditionsComfort  
Time TempWeatherWind HumidityBarometerVisibility
12:35 pm
Sat, Jul 11
72 °FPartly sunny.17 mph69%30.11 "Hg9 mi
12:15 pm72 °FPartly sunny.20 mph69%30.11 "Hg9 mi
11:55 am72 °FPartly sunny.16 mph69%30.10 "Hg10 mi
11:35 am72 °FScattered clouds.21 mph69%30.10 "Hg9 mi
11:15 am72 °FPartly sunny.18 mph69%30.10 "Hg9 mi
10:55 am70 °FMostly cloudy.20 mph73%30.09 "Hg10 mi
10:35 am68 °FPartly sunny.20 mph73%30.09 "Hg9 mi
10:15 am68 °FPartly sunny.18 mph73%30.09 "Hg9 mi
9:55 am68 °FPartly sunny.18 mph73%30.09 "Hg10 mi
9:35 am66 °FPartly sunny.18 mph78%30.08 "Hg10 mi
9:15 am66 °FScattered clouds.13 mph78%30.08 "Hg9 mi
8:55 am64 °FSunny.14 mph83%30.07 "Hg9 mi
8:35 am63 °FSunny.12 mph88%30.07 "Hg9 mi
7:55 am59 °FSunny.10 mph94%30.07 "Hg9 mi
7:35 am59 °FSunny.10 mph94%30.07 "Hg9 mi
7:15 am57 °FSunny.9 mph100%30.06 "Hg9 mi
6:55 am57 °FSunny.10 mph94%30.06 "Hg8 mi
6:35 am55 °FFog.12 mph100%30.06 "Hg6 mi
6:15 am55 °FSunny.12 mph100%30.06 "Hg9 mi
5:55 am55 °FClear.9 mph100%30.06 "Hg10 mi
5:35 am55 °FCool.8 mph100%30.06 "Hg10 mi
2:15 am61 °FClear.6 mph100%30.06 "Hg10 mi
1:55 am63 °FClear.6 mph94%30.06 "Hg10 mi
1:35 am64 °FClear.9 mph88%30.05 "Hg10 mi
1:15 am64 °FMild.12 mph88%30.04 "Hg10 mi
12:55 am64 °FMild.9 mph88%30.03 "Hg10 mi
12:35 am66 °FMild.12 mph83%30.03 "Hg10 mi
12:15 am66 °FMild.9 mph88%30.02 "Hg10 mi
11:55 pm
Fri, Jul 10
66 °FMild.10 mph88%30.01 "Hg10 mi
11:35 pm66 °FMild.10 mph88%30.00 "Hg10 mi
11:15 pm68 °FPassing clouds.9 mph88%30.00 "Hg10 mi
10:55 pm68 °FPassing clouds.9 mph88%30.00 "Hg10 mi
10:35 pm68 °FMild.9 mph94%30.00 "Hg10 mi
10:15 pm64 °FClear.5 mph100%30.00 "Hg9 mi
9:55 pm66 °FClear.5 mph94%29.99 "Hg8 mi
9:35 pm68 °FSunny.6 mph88%29.99 "Hg9 mi
9:15 pm70 °FSunny.5 mph83%29.97 "Hg9 mi
8:35 pm75 °FSunny.7 mph69%29.98 "Hg10 mi
7:55 pm73 °FSunny.No wind74%29.97 "Hg10 mi
7:35 pm75 °FSunny.No wind65%29.98 "Hg10 mi
7:15 pm75 °FSunny.3 mph65%29.95 "Hg9 mi
6:55 pm75 °FSunny.8 mph65%29.94 "Hg8 mi
6:35 pm75 °FPassing clouds.6 mph69%30.00 "Hg9 mi
6:15 pm75 °FScattered clouds.5 mph74%30.02 "Hg9 mi
5:55 pm75 °FPartly sunny.6 mph69%30.05 "Hg9 mi
5:35 pm77 °FScattered clouds.5 mph61%30.04 "Hg9 mi
5:15 pm77 °FScattered clouds.5 mph54%30.03 "Hg10 mi
4:55 pm79 °FPassing clouds.5 mph48%30.02 "Hg10 mi
4:35 pm79 °FSunny.6 mph48%30.00 "Hg10 mi
4:15 pm79 °FSunny.No wind48%30.00 "Hg9 mi
3:55 pm81 °FSunny.6 mph45%29.99 "Hg9 mi
3:35 pm79 °FSunny.No wind48%29.99 "Hg9 mi
3:15 pm79 °FSunny.7 mph48%30.00 "Hg10 mi
2:35 pm79 °FSunny.7 mph54%30.01 "Hg9 mi
2:15 pm79 °FSunny.6 mph51%30.02 "Hg10 mi
1:55 pm77 °FSunny.7 mph57%30.02 "Hg10 mi
1:35 pm77 °FSunny.8 mph54%30.02 "Hg9 mi
1:15 pm75 °FSunny.6 mph61%30.02 "Hg10 mi
Weather by CustomWeather, © 2020

See weather overview